Location: *
(46.1833°N, 22.7667°E)
Time: 07:39:38
(UTC+00:00)

DMSP B5D2-2 - Pass Details

Date: 17 September 2019
Orbit: 790 x 806 km, 98.4° (Epoch: 21 October)

Event Time Altitude Azimuth Distance (km) Brightness Sun altitude
Rises 18:45:18 0° 17° (NNE) 3,332 7.5 -22.0°
Reaches altitude 10° 18:47:42 10° 22° (NNE) 2,397 6.6 -22.4°
Enters shadow 18:52:54 55° 100° (E) 965 4.1 -23.1°
